{"data":{"norad_id":62708,"epoch":"2026-05-25T05:05:33.196992Z","epoch_age_seconds":59828,"freshness":"FRESH","line1":"1 62708U 25009DD  26145.21218978  .00002926  00000+0  25524-3 0  9994","line2":"2 62708  97.7082 225.7803 0000381  82.7362 277.3903 14.97616598 74025","mean_motion":14.97616598,"eccentricity":3.81e-5,"inclination_deg":97.7082,"raan_deg":225.7803,"arg_perigee_deg":82.7362,"mean_anomaly_deg":277.3903,"bstar":0.00025524,"rev_number":7402,"period_min":96.152780486211,"perigee_km":573.99801705754,"apogee_km":574.52778993019,"semimajor_km":6952.3999034939,"source":"CELESTRAK","updated_at":"2026-05-25T13:38:03.206535Z"}}